STARLINK-1679, 46557

Orbit data source: Space-Track

STARLINK-1679, 46557 is a payload satellite owned by SpaceX/Seattle (US) in LEO that was launched on Tue, 06 Oct 2020 UTC via an FALCON 9 launch vehicle from the Air Force Eastern Test Range (AFETR). Payload-class satellites include a variety of spacecraft equipped with specific instruments for various scientific and technological missions. These include communications satellites like Starlink; space stations such as the ISS; scientific satellites like the Hubble; Earth observation satellites from companies like Planet Labs, Umbra, and HawkEye 360; GPS; miniature CubeSats for education and research; and military/defense satellites.

Loading next visibility...
Identifier
46557, 2020-070AB
Orbit
LEO
Country
Flag of USUS
Related business
Manufacturer
SpaceX/Seattle
Mission
Partially operational Commercial Communications
Bus & Motor
STARLINK, Unknown motor
Mass
260 kg wet, ~248 kg dry
Launch date (UTC)
2020-10-06 (5 years ago)
Launch vehicle
FALCON 9
Launch site
Air Force Eastern Test Range (AFETR)
Object type
Payload
Rocket body
Debris
Shape & HBR
Box + 1 Pan, 10.1 m
Radar Cross Section
13.562 m², Large (>1 m²)

Expand to show TLE details & history
Last TLE update: 7 hours ago

TLE from 7 hours ago
0 STARLINK-1679
1 46557U 20070AB  26062.00002315  .00129425  00000-0  17747-2 0  9994
2 46557  53.0483 156.6224 0005070 212.8954 278.9487 15.56444638  5928
Epoch: 2026-03-03T00:00Z
TLE epoch observation values (Epoch: 2026-03-03T00:00:02.000Z)
Latitude
36.69482°
Longitude
141.94831°
Altitude
400.318 km
Speed
7.675 km/s
True Right ascension
20h 10m 58s
True Declination
36° 31' 17"
Sunlit
Object was in daylight at epoch
Visualization orbit readout
Latitude
Unknown
Longitude
Unknown
Altitude
Unknown
Speed
Unknown
Apparent Right ascension
Unknown
Apparent Declination
Unknown
Sunlit
N/A
Visualization observer readout
Local Sidereal Time
11:12:34
Azimuth
Unknown
Elevation
Unknown
Doppler factor
Unknown
Orbital elements
Apogee altitude
401.67 km
Perigee altitude
394.798 km
Semi-major axis
6,776.371 km
Eccentricity
0.00051
Inclination
53.0483°
RAAN
156.6224°
Arg. of periapsis
212.8954°
True anomaly
278.8913°
Mean anomaly
278.9487°
Eccentric anomaly
278.92°
Mean motion
3.89088 °/min
Orbital period
92.52 mins
BSTAR
0.0017747
Loading maneuver chart data...
Computing Atmospheric mass density...
Loading historical data...
Loading historical data...
Loading historical data...
Loading historical data...
Loading historical data...
Loading historical data...
Loading historical data...

Documentation

Showing up to 5 results
|